When you browse on this site, cookies collect data to enhance your experience and personalize the content and advertising you see.
Visit our Privacy Policy to learn more. By continuing to use the site, you agree to this use of cookies and data.
  • In Czech Republic
  • List of Countries
  • For 7 days
  • Water Temperature
  • Satellite Maps
  • Weather Map
  • Weather Widgets
  • user-avatar
    Login

    Hourly Weather Sulukta

    Today, 18 January, Friday

    Time Temperature Precipitation Wind Pressure Humidity
    00:00 -1°C° 0 mm 6 mps 645 mmHg 36%
    01:00 -1°C° 0 mm 6 mps 645 mmHg 36%
    02:00 -1°C° 0 mm 6 mps 644 mmHg 36%
    03:00 -1°C° 0 mm 6 mps 644 mmHg 35%
    04:00 -1°C° 0 mm 6 mps 644 mmHg 35%
    05:00 -1°C° 0 mm 6 mps 643 mmHg 37%
    06:00 -1°C° 0 mm 6 mps 643 mmHg 37%
    07:00 +1°C° 0 mm 6 mps 643 mmHg 37%
    08:00 +1°C° 0 mm 6 mps 643 mmHg 37%
    09:00 +2°C° 0 mm 5 mps 643 mmHg 41%
    10:00 +3°C° 0 mm 5 mps 643 mmHg 44%
    11:00 +5°C° 0 mm 4 mps 643 mmHg 47%
    12:00 +5°C° 0.1 mm 4 mps 643 mmHg 49%
    13:00 +5°C° 0.1 mm 4 mps 642 mmHg 51%
    14:00 +5°C° 0.1 mm 3 mps 642 mmHg 54%
    15:00 +5°C° 0.1 mm 3 mps 642 mmHg 52%
    16:00 +5°C° 0.1 mm 3 mps 642 mmHg 51%
    17:00 +4°C° 0.1 mm 3 mps 642 mmHg 50%
    18:00 +4°C° 0 mm 3 mps 643 mmHg 49%
    19:00 +4°C° 0 mm 3 mps 643 mmHg 47%
    20:00 +5°C° 0 mm 2 mps 644 mmHg 46%
    21:00 +4°C° 0.3 mm 2 mps 644 mmHg 50%
    22:00 +5°C° 0.3 mm 1 mps 644 mmHg 55%
    23:00 +3°C° 0.3 mm 0 mps 644 mmHg 60%

    Tomorrow, 19 January, Saturday

    Time Temperature Precipitation Wind Pressure Humidity
    00:00 +3°C° 0.2 mm 0 mps 644 mmHg 62%
    01:00 +4°C° 0.2 mm 1 mps 645 mmHg 65%
    02:00 +4°C° 0.2 mm 1 mps 645 mmHg 67%
    03:00 +3°C° 0 mm 1 mps 645 mmHg 70%
    04:00 +3°C° 0 mm 1 mps 644 mmHg 73%
    05:00 +3°C° 0 mm 1 mps 644 mmHg 77%
    06:00 +2°C° 0 mm 2 mps 645 mmHg 71%
    07:00 +3°C° 0 mm 2 mps 645 mmHg 65%
    08:00 +2°C° 0 mm 3 mps 645 mmHg 59%
    09:00 +3°C° 0 mm 3 mps 646 mmHg 59%
    10:00 +4°C° 0 mm 4 mps 646 mmHg 60%
    11:00 +5°C° 0 mm 4 mps 646 mmHg 60%
    12:00 +5°C° 0 mm 4 mps 646 mmHg 59%
    13:00 +5°C° 0 mm 3 mps 645 mmHg 58%
    14:00 +5°C° 0 mm 3 mps 645 mmHg 57%
    15:00 +4°C° 0 mm 3 mps 644 mmHg 59%
    16:00 +4°C° 0 mm 2 mps 644 mmHg 61%
    17:00 +3°C° 0 mm 2 mps 644 mmHg 63%
    18:00 +3°C° 0 mm 2 mps 644 mmHg 69%
    19:00 +2°C° 0 mm 2 mps 644 mmHg 75%
    20:00 +1°C° 0 mm 2 mps 644 mmHg 81%
    21:00 +1°C° 0 mm 2 mps 644 mmHg 83%
    22:00 +1°C° 0 mm 2 mps 644 mmHg 84%
    23:00 +1°C° 0 mm 2 mps 644 mmHg 86%

    Day after tomorrow, 20 January, Sunday

    Time Temperature Precipitation Wind Pressure Humidity
    00:00 +1°C° 0.2 mm 2 mps 644 mmHg 88%
    01:00 +1°C° 0.2 mm 2 mps 644 mmHg 90%
    02:00 +1°C° 0.2 mm 2 mps 644 mmHg 92%
    03:00 -1°C° 0.1 mm 2 mps 643 mmHg 92%
    04:00 -1°C° 0.1 mm 2 mps 643 mmHg 92%
    05:00 +1°C° 0.1 mm 1 mps 643 mmHg 92%
    06:00 -1°C° 0.1 mm 2 mps 643 mmHg 92%
    07:00 -1°C° 0.1 mm 2 mps 643 mmHg 93%
    08:00 -1°C° 0.1 mm 2 mps 644 mmHg 93%
    09:00 -1°C° 0.3 mm 2 mps 644 mmHg 93%
    10:00 -1°C° 0.3 mm 2 mps 644 mmHg 93%
    11:00 -1°C° 0.3 mm 2 mps 644 mmHg 93%
    12:00 -1°C° 0.7 mm 2 mps 644 mmHg 94%
    13:00 -1°C° 0.7 mm 2 mps 644 mmHg 94%
    14:00 -1°C° 0.7 mm 2 mps 644 mmHg 95%
    15:00 -1°C° 0.8 mm 2 mps 644 mmHg 95%
    16:00 -2°C° 0.8 mm 3 mps 644 mmHg 96%
    17:00 -2°C° 0.8 mm 3 mps 645 mmHg 97%
    18:00 -2°C° 0.3 mm 2 mps 645 mmHg 95%
    19:00 -3°C° 0.3 mm 2 mps 646 mmHg 94%
    20:00 -3°C° 0.3 mm 2 mps 646 mmHg 93%
    21:00 -3°C° 0.1 mm 2 mps 647 mmHg 92%
    22:00 -2°C° 0.1 mm 1 mps 647 mmHg 91%
    23:00 -2°C° 0.1 mm 1 mps 647 mmHg 90%

    21 January, Monday

    Time Temperature Precipitation Wind Pressure Humidity
    00:00 -2°C° 0.1 mm 1 mps 647 mmHg 91%
    01:00 -2°C° 0.1 mm 1 mps 648 mmHg 92%
    02:00 -2°C° 0.1 mm 1 mps 648 mmHg 92%
    03:00 -3°C° 0 mm 1 mps 648 mmHg 91%
    04:00 -3°C° 0 mm 1 mps 648 mmHg 90%
    05:00 -3°C° 0 mm 1 mps 648 mmHg 89%
    06:00 -4°C° 0 mm 0 mps 648 mmHg 87%
    07:00 -4°C° 0 mm 0 mps 648 mmHg 86%
    08:00 -4°C° 0 mm 0 mps 649 mmHg 85%
    09:00 -3°C° 0 mm 0 mps 649 mmHg 83%
    10:00 -2°C° 0 mm 1 mps 649 mmHg 82%
    11:00 -1°C° 0 mm 1 mps 649 mmHg 81%
    12:00 -1°C° 0 mm 1 mps 648 mmHg 82%
    13:00 0°C° 0 mm 1 mps 648 mmHg 83%
    14:00 0°C° 0 mm 1 mps 648 mmHg 84%
    15:00 0°C° 0 mm 1 mps 647 mmHg 86%
    16:00 -1°C° 0 mm 1 mps 647 mmHg 88%
    17:00 -1°C° 0 mm 1 mps 647 mmHg 90%
    18:00 -1°C° 0 mm 1 mps 647 mmHg 90%
    19:00 -2°C° 0 mm 1 mps 647 mmHg 90%
    20:00 -2°C° 0 mm 1 mps 648 mmHg 89%
    21:00 -2°C° 0 mm 1 mps 647 mmHg 89%
    22:00 -2°C° 0 mm 1 mps 647 mmHg 88%
    23:00 -3°C° 0 mm 1 mps 647 mmHg 87%

    22 January, Tuesday

    Time Temperature Precipitation Wind Pressure Humidity
    00:00 -3°C° 0 mm 1 mps 647 mmHg 86%
    01:00 -3°C° 0 mm 1 mps 646 mmHg 85%
    02:00 -3°C° 0 mm 1 mps 646 mmHg 83%
    03:00 -3°C° 0 mm 1 mps 646 mmHg 83%
    04:00 -3°C° 0 mm 1 mps 646 mmHg 83%
    05:00 -4°C° 0 mm 0 mps 646 mmHg 83%
    06:00 -4°C° 0 mm 0 mps 646 mmHg 84%
    07:00 -4°C° 0 mm 0 mps 646 mmHg 84%
    08:00 -4°C° 0 mm 0 mps 646 mmHg 85%
    09:00 -2°C° 0 mm 1 mps 646 mmHg 83%
    10:00 -1°C° 0 mm 1 mps 646 mmHg 82%
    11:00 0°C° 0 mm 1 mps 646 mmHg 81%
    12:00 0°C° 0 mm 1 mps 645 mmHg 82%
    13:00 0°C° 0 mm 1 mps 645 mmHg 83%
    14:00 -1°C° 0 mm 2 mps 644 mmHg 84%
    15:00 0°C° 0 mm 1 mps 645 mmHg 86%
    16:00 0°C° 0 mm 1 mps 645 mmHg 88%
    17:00 0°C° 0 mm 1 mps 645 mmHg 90%
    18:00 -1°C° 0 mm 1 mps 645 mmHg 88%
    19:00 -1°C° 0 mm 1 mps 645 mmHg 86%
    20:00 -2°C° 0 mm 1 mps 646 mmHg 85%
    21:00 -2°C° 0 mm 1 mps 646 mmHg 82%
    22:00 -2°C° 0 mm 1 mps 646 mmHg 78%
    23:00 -2°C° 0 mm 1 mps 646 mmHg 75%

    23 January, Wednesday

    Time Temperature Precipitation Wind Pressure Humidity
    00:00 -2°C° 0 mm 1 mps 646 mmHg 73%
    01:00 -2°C° 0 mm 1 mps 646 mmHg 71%
    02:00 -2°C° 0 mm 1 mps 647 mmHg 68%
    03:00 -2°C° 0 mm 1 mps 647 mmHg 67%
    04:00 -2°C° 0 mm 1 mps 647 mmHg 66%
    05:00 -2°C° 0 mm 1 mps 647 mmHg 64%
    06:00 -2°C° 0 mm 1 mps 647 mmHg 63%
    07:00 -2°C° 0 mm 1 mps 648 mmHg 62%
    08:00 -4°C° 0 mm 2 mps 648 mmHg 60%
    09:00 -2°C° 0 mm 2 mps 649 mmHg 59%
    10:00 -1°C° 0 mm 2 mps 649 mmHg 57%
    11:00 +1°C° 0 mm 2 mps 650 mmHg 56%
    12:00 +1°C° 0 mm 2 mps 649 mmHg 59%
    13:00 +1°C° 0 mm 2 mps 649 mmHg 62%
    14:00 +2°C° 0 mm 2 mps 649 mmHg 65%
    15:00 +1°C° 0 mm 2 mps 649 mmHg 69%
    16:00 +1°C° 0 mm 1 mps 649 mmHg 74%
    17:00 +1°C° 0 mm 1 mps 649 mmHg 78%
    18:00 0°C° 0 mm 1 mps 649 mmHg 77%
    19:00 0°C° 0 mm 1 mps 649 mmHg 75%
    20:00 -3°C° 0 mm 2 mps 649 mmHg 73%
    21:00 -3°C° 0 mm 2 mps 649 mmHg 70%
    22:00 -3°C° 0 mm 2 mps 650 mmHg 66%
    23:00 -3°C° 0 mm 2 mps 650 mmHg 62%
    Show more